Freeport, IL

3:21 AM CDT on October 18, 2017 (GMT -0500)
Albertus

Weather History for KFEP - May, 2014

Change the Weather History Date:

Saturday, May 17, 2014

  Actual Average Record
Temperature  
Mean Temperature 46 °F -  
Max Temperature 58 °F 73 °F 88 °F (1977)
Min Temperature 35 °F 48 °F 35 °F (2011)
Degree Days  
Heating Degree Days 18    
Moisture  
Dew Point 33 °F    
Average Humidity 61    
Maximum Humidity 88    
Minimum Humidity 33    
Precipitation  
Precipitation 0.00 in - - ()
Sea Level Pressure  
Sea Level Pressure 30.13 in    
Wind  
Wind Speed 7 mph (WSW)    
Max Wind Speed 14 mph    
Max Gust Speed 21 mph    
Visibility 10 miles    
Events      
Averages and records for this station are not official NWS values.
T = Trace of Precipitation, MM = Missing Value Source: NWS Daily Summary

Daily Weather History Graph

Daily Weather History Graph

Search for Another Location

Airport or City:

Trip Planner

Search our weather history database for the weather conditions in past years. The results will help you decide how hot, cold, wet, or windy it might be!

Date:

Astronomy

May. 17, 2014 Rise Set
Actual Time 5:35 AM CDT 8:14 PM CDT
Civil Twilight 5:02 AM CDT 8:47 PM CDT
Nautical Twilight 4:22 AM CDT 9:27 PM CDT
Astronomical Twilight 3:36 AM CDT 10:14 PM CDT
Moon 11:14 PM CDT (5/17) 8:18 AM CDT (5/17)
Length of Visible Light 15h 44m
Length of Day
14h 39m
Waning Gibbous, 89% of the Moon is Illuminated
May 17
Waning Gibbous
May 21
Last Quarter
May 28
New
Jun 5
First Quarter
Jun 12
Full

Hourly Weather History & Observations

Time (CDT) Temp. Windchill Dew Point Humidity Pressure Visibility Wind Dir Wind Speed Gust Speed Precip Events Conditions
12:15 AM 40.6 °F 37.5 °F 37.4 °F 88% 30.10 in 10.0 mi WSW 4.6 mph - N/A   Overcast
12:35 AM 39.0 °F 34.8 °F 35.6 °F 88% 30.10 in 10.0 mi WSW 5.8 mph - N/A   Mostly Cloudy
12:55 AM 39.6 °F 36.3 °F 36.1 °F 88% 30.10 in 10.0 mi WSW 4.6 mph - N/A   Mostly Cloudy
1:15 AM 40.5 °F 37.3 °F 37.0 °F 88% 30.10 in 10.0 mi West 4.6 mph - N/A   Overcast
1:35 AM 38.8 °F 36.5 °F 35.6 °F 88% 30.09 in 10.0 mi WSW 3.5 mph - N/A   Overcast
1:55 AM 38.3 °F 35.9 °F 34.7 °F 87% 30.09 in 10.0 mi West 3.5 mph - N/A   Mostly Cloudy
2:15 AM 38.3 °F 34.8 °F 34.3 °F 86% 30.09 in 10.0 mi WSW 4.6 mph - N/A   Mostly Cloudy
2:35 AM 38.3 °F 34.8 °F 33.8 °F 84% 30.10 in 10.0 mi WSW 4.6 mph - N/A   Scattered Clouds
2:55 AM 38.3 °F 35.9 °F 33.8 °F 84% 30.10 in 10.0 mi WSW 3.5 mph - N/A   Mostly Cloudy
3:15 AM 38.3 °F 34.8 °F 33.4 °F 83% 30.10 in 10.0 mi WSW 4.6 mph - N/A   Overcast
3:35 AM 38.3 °F 34.8 °F 33.1 °F 81% 30.10 in 10.0 mi West 4.6 mph - N/A   Mostly Cloudy
3:55 AM 36.9 °F 33.1 °F 32.2 °F 83% 30.10 in 10.0 mi WSW 4.6 mph - N/A   Scattered Clouds
4:15 AM 36.3 °F 32.5 °F 32.0 °F 84% 30.10 in 10.0 mi WSW 4.6 mph - N/A   Scattered Clouds
4:35 AM 35.6 °F 31.7 °F 32.0 °F 87% 30.10 in 10.0 mi WSW 4.6 mph - N/A   Clear
4:55 AM 35.6 °F 31.7 °F 31.6 °F 85% 30.11 in 10.0 mi WSW 4.6 mph - N/A   Clear
5:15 AM 35.6 °F 31.7 °F 31.8 °F 86% 30.11 in 10.0 mi WSW 4.6 mph - N/A   Clear
5:35 AM 35.6 °F 31.7 °F 32.0 °F 87% 30.11 in 10.0 mi WSW 4.6 mph - N/A   Clear
5:55 AM 35.6 °F 31.7 °F 32.2 °F 87% 30.12 in 10.0 mi WSW 4.6 mph - N/A   Clear
6:15 AM 35.6 °F 31.7 °F 32.0 °F 87% 30.12 in 10.0 mi WSW 4.6 mph - N/A   Clear
6:35 AM 36.9 °F 33.1 °F 32.9 °F 86% 30.12 in 10.0 mi West 4.6 mph - N/A   Clear
6:55 AM 38.3 °F 34.8 °F 33.8 °F 84% 30.13 in 10.0 mi West 4.6 mph - N/A   Clear
7:15 AM 39.9 °F 37.8 °F 35.4 °F 84% 30.13 in 10.0 mi West 3.5 mph - N/A   Clear
7:35 AM 40.6 °F 37.5 °F 35.8 °F 83% 30.13 in 10.0 mi West 4.6 mph - N/A   Clear
7:55 AM 41.9 °F 38.2 °F 36.5 °F 81% 30.14 in 10.0 mi West 5.8 mph - N/A   Clear
8:15 AM 43.2 °F 39.0 °F 36.9 °F 78% 30.14 in 10.0 mi West 6.9 mph - N/A   Clear
8:35 AM 44.4 °F 40.5 °F 36.9 °F 75% 30.14 in 10.0 mi West 6.9 mph - N/A   Clear
8:55 AM 45.9 °F 42.3 °F 36.9 °F 71% 30.14 in 10.0 mi West 6.9 mph - N/A   Clear
9:15 AM 48.2 °F - 37.0 °F 65% 30.14 in 10.0 mi WNW 8.1 mph - N/A   Clear
9:35 AM 50.7 °F - 37.8 °F 61% 30.14 in 10.0 mi West 10.4 mph - N/A   Clear
9:55 AM 50.9 °F - 35.1 °F 55% 30.15 in 10.0 mi West 6.9 mph - N/A   Clear
10:15 AM 50.9 °F - 34.0 °F 52% 30.15 in 10.0 mi West 6.9 mph - N/A   Scattered Clouds
10:35 AM 50.9 °F - 31.5 °F 47% 30.15 in 10.0 mi West 5.8 mph - N/A   Scattered Clouds
10:55 AM 52.0 °F - 31.3 °F 45% 30.15 in 10.0 mi West 10.4 mph - N/A   Scattered Clouds
11:15 AM 52.3 °F - 30.6 °F 43% 30.15 in 10.0 mi WNW 10.4 mph - N/A   Scattered Clouds
11:35 AM 50.9 °F - 30.7 °F 46% 30.15 in 10.0 mi West 11.5 mph - N/A   Scattered Clouds
11:55 AM 51.3 °F - 28.8 °F 42% 30.15 in 10.0 mi WSW 8.1 mph 17.3 mph N/A   Scattered Clouds
12:15 PM 54.1 °F - 30.7 °F 41% 30.15 in 10.0 mi WNW 10.4 mph - N/A   Scattered Clouds
12:35 PM 53.2 °F - 28.2 °F 38% 30.15 in 10.0 mi SW 8.1 mph - N/A   Scattered Clouds
12:55 PM 53.2 °F - 29.1 °F 40% 30.15 in 10.0 mi West 10.4 mph - N/A   Scattered Clouds
1:15 PM 55.8 °F - 31.5 °F 40% 30.15 in 10.0 mi WSW 13.8 mph - N/A   Scattered Clouds
1:35 PM 55.8 °F - 32.2 °F 41% 30.15 in 10.0 mi WSW 10.4 mph - N/A   Scattered Clouds
1:55 PM 55.8 °F - 29.8 °F 37% 30.14 in 10.0 mi West 11.5 mph 19.6 mph N/A   Scattered Clouds
2:15 PM 56.3 °F - 31.8 °F 39% 30.14 in 10.0 mi West 11.5 mph 17.3 mph N/A   Scattered Clouds
2:35 PM 55.8 °F - 31.1 °F 39% 30.14 in 10.0 mi WSW 11.5 mph 18.4 mph N/A   Scattered Clouds
2:55 PM 56.5 °F - 30.9 °F 38% 30.14 in 10.0 mi WSW 12.7 mph 19.6 mph N/A   Scattered Clouds
3:15 PM 55.8 °F - 28.4 °F 35% 30.14 in 10.0 mi West 13.8 mph 20.7 mph N/A   Scattered Clouds
3:35 PM 57.0 °F - 29.1 °F 35% 30.13 in 10.0 mi SW 13.8 mph 17.3 mph N/A   Scattered Clouds
3:55 PM 55.8 °F - 29.1 °F 36% 30.13 in 10.0 mi West 8.1 mph - N/A   Scattered Clouds
4:15 PM 56.8 °F - 27.5 °F 33% 30.13 in 10.0 mi WSW 12.7 mph 19.6 mph N/A   Scattered Clouds
4:35 PM 55.8 °F - 29.7 °F 37% 30.13 in 10.0 mi WSW 6.9 mph - N/A   Mostly Cloudy
4:55 PM 58.1 °F - 29.7 °F 34% 30.13 in 10.0 mi WSW 10.4 mph - N/A   Mostly Cloudy
5:15 PM 55.8 °F - 28.8 °F 36% 30.13 in 10.0 mi West 11.5 mph 17.3 mph N/A   Mostly Cloudy
5:35 PM 56.5 °F - 28.4 °F 34% 30.13 in 10.0 mi WSW 11.5 mph - N/A   Mostly Cloudy
5:55 PM 55.8 °F - 30.0 °F 37% 30.14 in 10.0 mi SW 6.9 mph - N/A   Scattered Clouds
6:15 PM 55.8 °F - 27.7 °F 34% 30.13 in 10.0 mi WSW 12.7 mph - N/A   Mostly Cloudy
6:35 PM 55.8 °F - 31.1 °F 39% 30.14 in 10.0 mi WSW 6.9 mph - N/A   Scattered Clouds
6:55 PM 55.8 °F - 31.3 °F 39% 30.14 in 10.0 mi SW 6.9 mph - N/A   Scattered Clouds
7:15 PM 55.8 °F - 32.4 °F 41% 30.14 in 10.0 mi SW 10.4 mph - N/A   Scattered Clouds
7:35 PM 53.2 °F - 33.3 °F 47% 30.14 in 10.0 mi SW 6.9 mph - N/A   Clear
7:55 PM 50.9 °F - 36.1 °F 57% 30.14 in 10.0 mi SW 9.2 mph - N/A   Clear
8:15 PM 48.6 °F - 36.0 °F 62% 30.14 in 10.0 mi SW 9.2 mph - N/A   Clear
8:35 PM 49.3 °F - 35.2 °F 58% 30.15 in 10.0 mi SSW 10.4 mph - N/A   Clear
8:55 PM 48.4 °F - 34.2 °F 58% 30.15 in 10.0 mi SSW 9.2 mph - N/A   Clear
9:15 PM 46.9 °F - 34.9 °F 63% 30.15 in 10.0 mi SSW 9.2 mph - N/A   Clear
9:35 PM 46.9 °F - 34.7 °F 62% 30.16 in 10.0 mi SSW 10.4 mph - N/A   Clear
9:55 PM 45.7 °F 40.6 °F 34.2 °F 64% 30.16 in 10.0 mi SSW 10.4 mph - N/A   Scattered Clouds
10:15 PM 48.2 °F - 35.1 °F 60% 30.16 in 10.0 mi SSW 11.5 mph - N/A   Mostly Cloudy
10:35 PM 48.2 °F - 34.7 °F 60% 30.16 in 10.0 mi SSW 11.5 mph - N/A   Scattered Clouds
10:55 PM 48.2 °F - 34.5 °F 59% 30.17 in 10.0 mi SSW 12.7 mph - N/A   Clear
11:15 PM 46.2 °F 40.8 °F 33.8 °F 62% 30.17 in 10.0 mi SSW 11.5 mph - N/A   Clear
11:35 PM 45.7 °F 41.0 °F 33.8 °F 63% 30.17 in 10.0 mi South 9.2 mph - N/A   Clear
11:55 PM 44.8 °F 39.4 °F 33.3 °F 64% 30.17 in 10.0 mi SSW 10.4 mph - N/A   Clear